User: anonymous   Login
Location: Doussal
(55.6167°N, 116.8333°W)
Time: 10:17:49
(UTC+00:00)
Language:

QB50P2 - Orbit

View from above orbital plane
View from above orbital plane
View from above satellite
View from above satellite

Ground track
Ground track

The orbit data is extracted from the following two-line orbital elements,

1 40032U 14033Y   23333.82259181  .00009071  00000-0  82981-3 0  9998
2 40032  97.9856 276.8410 0012102  99.8778 260.3808 14.95165031513222
Epoch (UTC): 29 November 2023 19:44:31
Eccentricity: 0.0012102
inclination: 97.9856°
perigee height: 573 km
apogee height: 590 km
right ascension of ascending node: 276.8410°
argument of perigee: 99.8778°
revolutions per day: 14.95165031
mean anomaly at epoch: 260.3808°
orbit number at epoch: 51322

The dashed part of the orbit path shows where the satellite is in the earth's shadow,  

DLR